Darstellungsparameter: Aktuell verwendete Einstellungen:
Skalierung der Graphiken ... ?
xyx+y,   Skalierungsfaktor:      Skalierung: Modus: x, Faktor: 1
Darstellungszeitraum ... ?
Vom - - bis: - -   Zeitraum: 03.08.2018 - 02.08.2019
Min/Max/Avg-Anzeige ... ?
Zeige MMA aktuell
Zeige MMA Monat
Zeige MMA alles
Zeige --A aktuell
Zeige --A Monat
Zeige --A alles
Keine MMA-Anzeige
MMA:
Keine MMA-Graphiken
MMA-Basis: 03.08.2018 - 02.08.2019
Quicknavigation für Darstellung... ?
Tage:      1T, 2T, 3T, 5T -1T -2T -3T -5T +1T +2T +3T +5T
Wochen: 1W, 2W, 3W -1W -2W -3W +1W +2W +3W
Monate: 1M, 3M, 6M -1M -3M -6M +1M +3M +6M
Jahre:    1J, 3J, 5J, 10J -1J -3J -5J -10J +1J +3J +5J +10J
Nutze für die Darstellung ... ?
Originaldaten oder ...
Mittelwerte Minima Maxima auf...
Stundenbasis Tagesbasis Wochenbasis
Monatsbasis Jahresbasis      Datenbasis: Mittelwerte auf Tagesbasis
Darstellen als:
Statistik (Auto) Statistik J:M      Darstellung:
Zur Graphik,    zurück zur Übersicht aller Sensoren.
 
Tabellarische Datenbersicht: ?
 
Sensor: Nr:Datum:Temp:Feuchte:
Aussen-T/F 1 03-08-2018 00:00:00 26.79583 C 20.9083 %
2 04-08-2018 00:00:00 26.84 C 20.0667 %
3 05-08-2018 00:00:00 25.5025 C 20.1667 %
4 06-08-2018 00:00:00 24.4075 C 20.1500 %
5 07-08-2018 00:00:00 26.99333 C 20.0000 %
6 08-08-2018 00:00:00 25.83667 C 20.0000 %
7 09-08-2018 00:00:00 20.8725 C 26.6583 %
8 10-08-2018 00:00:00 18.73667 C 20.8917 %
9 11-08-2018 00:00:00 18.76667 C 20.0000 %
10 12-08-2018 00:00:00 18.38667 C 21.9833 %
11 13-08-2018 00:00:00 17.82083 C 28.9750 %
12 14-08-2018 00:00:00 18.755 C 28.1167 %
13 15-08-2018 00:00:00 19.59583 C 29.0833 %
14 16-08-2018 00:00:00 20.84333 C 28.0000 %
15 17-08-2018 00:00:00 20.11583 C 22.3500 %
16 18-08-2018 00:00:00 19.2675 C 26.3417 %
17 19-08-2018 00:00:00 20.68667 C 23.5250 %
18 20-08-2018 00:00:00 21.20333 C 20.6833 %
19 21-08-2018 00:00:00 22.2425 C 24.3417 %
20 22-08-2018 00:00:00 23.51417 C 22.7667 %
21 23-08-2018 00:00:00 23.22 C 23.0167 %
22 24-08-2018 00:00:00 19.31833 C 20.6583 %
23 25-08-2018 00:00:00 14.65417 C 21.6083 %
24 26-08-2018 00:00:00 13.95083 C 28.0000 %
25 27-08-2018 00:00:00 18.20917 C 20.3667 %
Sensor: Nr:Datum:Temp:Feuchte:
Aussen-T/F 26 28-08-2018 00:00:00 18.39833 C 20.7167 %
27 29-08-2018 00:00:00 17.005 C 30.8917 %
28 30-08-2018 00:00:00 17.4125 C 25.9167 %
29 31-08-2018 00:00:00 15.33167 C 23.6000 %
30 01-09-2018 00:00:00 14.445 C 26.6667 %
31 02-09-2018 00:00:00 14.24833 C 24.8000 %
32 03-09-2018 00:00:00 18.13417 C 22.9917 %
33 04-09-2018 00:00:00 20.0425 C 27.0167 %
34 05-09-2018 00:00:00 20.69 C 25.3083 %
35 06-09-2018 00:00:00 18.0925 C 32.7583 %
36 07-09-2018 00:00:00 15.6675 C 33.8500 %
37 08-09-2018 00:00:00 13.5425 C 30.5333 %
38 09-09-2018 00:00:00 16.80833 C 23.2500 %
39 10-09-2018 00:00:00 17.5025 C 23.9000 %
40 11-09-2018 00:00:00 18.86667 C 26.0333 %
41 12-09-2018 00:00:00 19.03167 C 24.0083 %
42 13-09-2018 00:00:00 16.5775 C 25.7417 %
43 14-09-2018 00:00:00 17.1375 C 25.2000 %
44 15-09-2018 00:00:00 15.17 C 21.0833 %
45 16-09-2018 00:00:00 14.51 C 27.7833 %
46 17-09-2018 00:00:00 16.24583 C 25.3583 %
47 18-09-2018 00:00:00 18.72833 C 26.0000 %
48 19-09-2018 00:00:00 20.545 C 25.3250 %
49 20-09-2018 00:00:00 19.08833 C 26.8417 %
50 21-09-2018 00:00:00 15.91167 C 24.5750 %
Sensor: Nr:Datum:Temp:Feuchte:
Aussen-T/F 51 22-09-2018 00:00:00 12.6825 C 25.6333 %
52 23-09-2018 00:00:00 12.18083 C 47.2250 %
53 24-09-2018 00:00:00 9.66 C 36.3583 %
54 25-09-2018 00:00:00 8.06417 C 42.7083 %
55 26-09-2018 00:00:00 8.5625 C 35.2583 %
56 27-09-2018 00:00:00 10.55833 C 35.5667 %
57 28-09-2018 00:00:00 9.67833 C 43.7167 %
58 29-09-2018 00:00:00 7.75083 C 41.1250 %
59 30-09-2018 00:00:00 7.2475 C 35.9250 %
60 01-10-2018 00:00:00 9.41583 C 29.7833 %
61 02-10-2018 00:00:00 8.87917 C 33.7167 %
62 03-10-2018 00:00:00 11.93917 C 34.0750 %
63 04-10-2018 00:00:00 9.37167 C 38.3000 %
64 05-10-2018 00:00:00 10.05917 C 42.4917 %
65 06-10-2018 00:00:00 12.08583 C 44.5417 %
66 07-10-2018 00:00:00 12.625 C 37.2750 %
67 08-10-2018 00:00:00 9.9775 C 39.4833 %
68 09-10-2018 00:00:00 11.14583 C 44.1500 %
69 10-10-2018 00:00:00 12.71667 C 45.8500 %
70 11-10-2018 00:00:00 13.6775 C 40.8667 %
71 12-10-2018 00:00:00 15.05417 C 38.8667 %
72 13-10-2018 00:00:00 14.68833 C 38.8250 %
73 14-10-2018 00:00:00 13.92083 C 36.1000 %
74 15-10-2018 00:00:00 12.87417 C 37.7167 %
75 16-10-2018 00:00:00 12.0325 C 38.6083 %
Sensor: Nr:Datum:Temp:Feuchte:
Aussen-T/F 76 17-10-2018 00:00:00 12.01333 C 41.5083 %
77 18-10-2018 00:00:00 13.73917 C 38.0333 %
78 19-10-2018 00:00:00 11.66417 C 37.7167 %
79 20-10-2018 00:00:00 10.57167 C 36.9583 %
80 21-10-2018 00:00:00 6.7725 C 44.7500 %
81 22-10-2018 00:00:00 7.16833 C 43.7083 %
82 23-10-2018 00:00:00 8.68 C 39.8083 %
83 24-10-2018 00:00:00 13.58167 C 33.8333 %
84 25-10-2018 00:00:00 12.74667 C 31.1083 %
85 26-10-2018 00:00:00 9.95417 C 28.9917 %
86 27-10-2018 00:00:00 5.7925 C 48.4000 %
87 28-10-2018 00:00:00 5.2 C 33.7840 %
88 29-10-2018 00:00:00 5.97083 C 33.6667 %
89 30-10-2018 00:00:00 5.80583 C 46.3667 %
90 31-10-2018 00:00:00 6.87167 C 39.3333 %
91 01-11-2018 00:00:00 5.49083 C 58.1333 %
92 02-11-2018 00:00:00 8.22333 C 53.4750 %
93 03-11-2018 00:00:00 3.10583 C 60.6667 %
94 04-11-2018 00:00:00 6.64167 C 47.4000 %
95 05-11-2018 00:00:00 9.7725 C 45.3417 %
96 06-11-2018 00:00:00 7.78167 C 57.6917 %
97 07-11-2018 00:00:00 8.4 C 54.3917 %
98 08-11-2018 00:00:00 9.7 C 41.1583 %
99 09-11-2018 00:00:00 8.83167 C 49.0500 %
100 10-11-2018 00:00:00 11.32 C 42.0250 %
Sensor: Nr:Datum:Temp:Feuchte:
Aussen-T/F 101 11-11-2018 00:00:00 11.46583 C 47.7500 %
102 12-11-2018 00:00:00 13.07917 C 44.0417 %
103 13-11-2018 00:00:00 9.75583 C 50.0167 %
104 14-11-2018 00:00:00 5.56917 C 61.4000 %
105 15-11-2018 00:00:00 6.72833 C 38.5000 %
106 16-11-2018 00:00:00 5.12667 C 41.4000 %
107 17-11-2018 00:00:00 1.785 C 48.8667 %
108 18-11-2018 00:00:00 0.80333 C 30.7417 %
109 19-11-2018 00:00:00 2.95833 C 26.3167 %
110 20-11-2018 00:00:00 2.95167 C 25.6167 %
111 21-11-2018 00:00:00 1.93 C 37.9750 %
112 22-11-2018 00:00:00 2.22833 C 39.2750 %
113 23-11-2018 00:00:00 -0.8425 C 54.2583 %
114 24-11-2018 00:00:00 4.05833 C 58.0917 %
115 25-11-2018 00:00:00 5.29 C 56.7917 %
116 26-11-2018 00:00:00 6.09333 C 35.8583 %
117 27-11-2018 00:00:00 3.6075 C 30.9583 %
118 28-11-2018 00:00:00 2.97583 C 45.6917 %
119 29-11-2018 00:00:00 4.98333 C 47.6917 %
120 30-11-2018 00:00:00 6.67167 C 48.6583 %
121 01-12-2018 00:00:00 6.67417 C 47.9750 %
122 02-12-2018 00:00:00 10.59167 C 45.4750 %
123 03-12-2018 00:00:00 11.02333 C 51.1333 %
124 04-12-2018 00:00:00 5.62 C 45.3833 %
125 05-12-2018 00:00:00 3.15546 C 56.8487 %
Sensor: Nr:Datum:Temp:Feuchte:
Aussen-T/F 126 06-12-2018 00:00:00 9.21333 C 47.7750 %
127 07-12-2018 00:00:00 10.71583 C 33.9000 %
128 08-12-2018 00:00:00 7.28083 C 37.2333 %
129 09-12-2018 00:00:00 7.285 C 37.6917 %
130 10-12-2018 00:00:00 3.9825 C 44.3833 %
131 11-12-2018 00:00:00 2.87417 C 51.3500 %
132 12-12-2018 00:00:00 2.0375 C 58.1583 %
133 13-12-2018 00:00:00 0.49 C 37.0417 %
134 14-12-2018 00:00:00 0.48 C 20.9833 %
135 15-12-2018 00:00:00 -0.09083 C 24.2083 %
136 16-12-2018 00:00:00 0.045 C 43.8833 %
137 17-12-2018 00:00:00 3.4775 C 51.8333 %
138 18-12-2018 00:00:00 4.1675 C 41.5083 %
139 19-12-2018 00:00:00 5.75 C 37.3000 %
140 20-12-2018 00:00:00 6.87083 C 39.0583 %
141 21-12-2018 00:00:00 10.1725 C 34.4750 %
142 22-12-2018 00:00:00 9.26167 C 35.0083 %
143 23-12-2018 00:00:00 7.89333 C 46.8500 %
144 24-12-2018 00:00:00 4.10333 C 44.5000 %
145 25-12-2018 00:00:00 1.0625 C 49.8500 %
146 26-12-2018 00:00:00 -1.61083 C 52.7667 %
147 27-12-2018 00:00:00 -0.68583 C 57.2917 %
148 28-12-2018 00:00:00 -0.61667 C 51.7667 %
149 29-12-2018 00:00:00 2.0175 C 45.4833 %
150 30-12-2018 00:00:00 6.73917 C 37.6417 %
Sensor: Nr:Datum:Temp:Feuchte:
Aussen-T/F 151 31-12-2018 00:00:00 6.84917 C 56.5417 %
152 01-01-2019 00:00:00 6.345 C 45.5833 %
153 02-01-2019 00:00:00 2.72417 C 34.2083 %
154 03-01-2019 00:00:00 1.28167 C 47.5833 %
155 04-01-2019 00:00:00 2.41333 C 45.7833 %
156 05-01-2019 00:00:00 5.14417 C 47.4583 %
157 06-01-2019 00:00:00 5.0725 C 44.3083 %
158 07-01-2019 00:00:00 4.8875 C 41.5500 %
159 08-01-2019 00:00:00 5.74917 C 36.7000 %
160 09-01-2019 00:00:00 3.05083 C 34.6917 %
161 10-01-2019 00:00:00 1.36 C 32.5417 %
162 11-01-2019 00:00:00 2.05417 C 54.0417 %
163 12-01-2019 00:00:00 5.01833 C 46.3583 %
164 13-01-2019 00:00:00 6.9225 C 47.7417 %
165 14-01-2019 00:00:00 4.06833 C 43.5667 %
166 15-01-2019 00:00:00 4.06833 C 40.0333 %
167 16-01-2019 00:00:00 4.52583 C 35.3417 %
168 17-01-2019 00:00:00 4.27167 C 37.9583 %
169 18-01-2019 00:00:00 -0.2025 C 49.3250 %
170 19-01-2019 00:00:00 -3.87667 C 48.1333 %
171 20-01-2019 00:00:00 -6.33 C 47.2250 %
172 21-01-2019 00:00:00 -7.505 C 46.8917 %
173 22-01-2019 00:00:00 -5.97917 C 44.1750 %
174 23-01-2019 00:00:00 -2.435 C 39.5667 %
175 24-01-2019 00:00:00 -2.72417 C 26.7667 %
Sensor: Nr:Datum:Temp:Feuchte:
Aussen-T/F 176 25-01-2019 00:00:00 -0.50917 C 39.3333 %
177 26-01-2019 00:00:00 3.62167 C 45.9417 %
178 27-01-2019 00:00:00 4.94833 C 43.1917 %
179 28-01-2019 00:00:00 2.2025 C 45.2417 %
180 29-01-2019 00:00:00 0.865 C 44.1667 %
181 30-01-2019 00:00:00 -0.46833 C 49.8250 %
182 31-01-2019 00:00:00 -1.03333 C 52.2750 %
183 01-02-2019 00:00:00 0.72167 C 56.8333 %
184 02-02-2019 00:00:00 1.59587 C 62.5950 %
185 03-02-2019 00:00:00 1.86583 C 40.0750 %
186 04-02-2019 00:00:00 0.99417 C 40.5833 %
187 05-02-2019 00:00:00 3.66167 C 30.5917 %
188 06-02-2019 00:00:00 0.09417 C 46.8417 %
189 07-02-2019 00:00:00 4.26083 C 38.9917 %
190 08-02-2019 00:00:00 6.77417 C 31.6250 %
191 09-02-2019 00:00:00 8.02083 C 28.8667 %
192 10-02-2019 00:00:00 7.15083 C 39.6167 %
193 11-02-2019 00:00:00 4.03667 C 38.3917 %
194 12-02-2019 00:00:00 3.01917 C 38.2083 %
195 13-02-2019 00:00:00 0.96333 C 46.8167 %
196 14-02-2019 00:00:00 -0.46667 C 51.0250 %
197 15-02-2019 00:00:00 0.9925 C 45.0667 %
198 16-02-2019 00:00:00 1.9325 C 47.3750 %
199 17-02-2019 00:00:00 2.17333 C 49.1333 %
200 18-02-2019 00:00:00 2.31167 C 43.0500 %
Sensor: Nr:Datum:Temp:Feuchte:
Aussen-T/F 201 19-02-2019 00:00:00 4.89 C 40.9750 %
202 20-02-2019 00:00:00 3.7725 C 45.5000 %
203 21-02-2019 00:00:00 5.655 C 46.3667 %
204 22-02-2019 00:00:00 9.27167 C 39.5167 %
205 23-02-2019 00:00:00 4.58167 C 33.2583 %
206 24-02-2019 00:00:00 2.29833 C 32.9417 %
207 25-02-2019 00:00:00 3.65667 C 31.8250 %
208 26-02-2019 00:00:00 4.75583 C 37.6333 %
209 27-02-2019 00:00:00 5.17417 C 38.9250 %
210 28-02-2019 00:00:00 8.185 C 29.8833 %
211 01-03-2019 00:00:00 7.515 C 43.8250 %
212 02-03-2019 00:00:00 8.29333 C 34.1417 %
213 03-03-2019 00:00:00 10.72417 C 28.1417 %
214 04-03-2019 00:00:00 9.1575 C 27.8167 %
215 05-03-2019 00:00:00 6.32167 C 30.8917 %
216 06-03-2019 00:00:00 9.5125 C 32.3667 %
217 07-03-2019 00:00:00 9.61917 C 28.3833 %
218 08-03-2019 00:00:00 7.73167 C 28.8250 %
219 09-03-2019 00:00:00 10.01667 C 26.3333 %
220 10-03-2019 00:00:00 9.11083 C 30.1417 %
221 11-03-2019 00:00:00 4.19667 C 30.2417 %
222 12-03-2019 00:00:00 6.18083 C 27.8583 %
223 13-03-2019 00:00:00 5.6775 C 31.5250 %
224 14-03-2019 00:00:00 6.3325 C 38.0083 %
225 15-03-2019 00:00:00 9.61417 C 37.6917 %
Sensor: Nr:Datum:Temp:Feuchte:
Aussen-T/F 226 16-03-2019 00:00:00 9.76833 C 35.9667 %
227 17-03-2019 00:00:00 8.19083 C 26.8333 %
228 18-03-2019 00:00:00 4.3225 C 36.6583 %
229 19-03-2019 00:00:00 3.115 C 40.3583 %
230 20-03-2019 00:00:00 4.81417 C 37.4250 %
231 21-03-2019 00:00:00 6.76333 C 35.7167 %
232 22-03-2019 00:00:00 8.43083 C 34.0750 %
233 23-03-2019 00:00:00 5.40167 C 40.0083 %
234 24-03-2019 00:00:00 5.90583 C 38.2167 %
235 25-03-2019 00:00:00 4.41583 C 37.7583 %
236 26-03-2019 00:00:00 6.33417 C 32.9583 %
237 27-03-2019 00:00:00 6.36583 C 35.3083 %
238 28-03-2019 00:00:00 6.955 C 36.2417 %
239 29-03-2019 00:00:00 8.44167 C 38.7750 %
240 30-03-2019 00:00:00 10.07583 C 34.1833 %
241 31-03-2019 00:00:00 9.90957 C 33.8174 %
242 01-04-2019 00:00:00 8.9475 C 32.5750 %
243 02-04-2019 00:00:00 10.5425 C 29.3083 %
244 03-04-2019 00:00:00 7.865 C 38.6750 %
245 04-04-2019 00:00:00 5.56833 C 48.7000 %
246 05-04-2019 00:00:00 5.95417 C 48.0167 %
247 06-04-2019 00:00:00 9.88333 C 42.1917 %
248 07-04-2019 00:00:00 11.50833 C 36.8000 %
249 08-04-2019 00:00:00 12.34417 C 33.9167 %
250 09-04-2019 00:00:00 12.00333 C 40.7333 %
Sensor: Nr:Datum:Temp:Feuchte:
Aussen-T/F 251 10-04-2019 00:00:00 10.585 C 23.8417 %
252 11-04-2019 00:00:00 6.52917 C 25.0583 %
253 12-04-2019 00:00:00 4.68167 C 20.0000 %
254 13-04-2019 00:00:00 3.585 C 24.4167 %
255 14-04-2019 00:00:00 5.23833 C 34.7917 %
256 15-04-2019 00:00:00 10.29167 C 25.8000 %
257 16-04-2019 00:00:00 10.91333 C 23.2000 %
258 17-04-2019 00:00:00 12.4 C 35.6083 %
259 18-04-2019 00:00:00 13.7675 C 28.5500 %
260 19-04-2019 00:00:00 14.94917 C 24.5083 %
261 20-04-2019 00:00:00 14.60167 C 27.5833 %
262 21-04-2019 00:00:00 15.24333 C 24.6417 %
263 22-04-2019 00:00:00 14.7825 C 27.5667 %
264 23-04-2019 00:00:00 15.12667 C 20.1083 %
265 24-04-2019 00:00:00 15.10083 C 30.7083 %
266 25-04-2019 00:00:00 13.2425 C 38.0667 %
267 26-04-2019 00:00:00 11.8 C 32.0000 %
268 27-04-2019 00:00:00 9.01583 C 40.3667 %
269 28-04-2019 00:00:00 8.43333 C 30.9750 %
270 29-04-2019 00:00:00 8.62417 C 38.4083 %
271 30-04-2019 00:00:00 13.94583 C 26.0833 %
272 01-05-2019 00:00:00 13.03833 C 29.5000 %
273 02-05-2019 00:00:00 12.08333 C 31.3667 %
274 03-05-2019 00:00:00 11.20833 C 25.1500 %
275 04-05-2019 00:00:00 6.17583 C 33.4500 %
Sensor: Nr:Datum:Temp:Feuchte:
Aussen-T/F 276 05-05-2019 00:00:00 6.66333 C 32.0417 %
277 06-05-2019 00:00:00 7.6075 C 30.6583 %
278 07-05-2019 00:00:00 9.645 C 28.6167 %
279 08-05-2019 00:00:00 9.105 C 38.9750 %
280 09-05-2019 00:00:00 11.085 C 36.9583 %
281 10-05-2019 00:00:00 12.44538 C 33.3866 %
282 11-05-2019 00:00:00 9.52833 C 47.9417 %
283 12-05-2019 00:00:00 9.4 C 31.3083 %
284 13-05-2019 00:00:00 9.985 C 30.9083 %
285 14-05-2019 00:00:00 9.66333 C 26.4333 %
286 15-05-2019 00:00:00 10.57083 C 24.3500 %
287 16-05-2019 00:00:00 10.61167 C 23.0917 %
288 17-05-2019 00:00:00 11.4775 C 39.7250 %
289 18-05-2019 00:00:00 14.67167 C 39.3500 %
290 19-05-2019 00:00:00 15.91083 C 38.3750 %
291 20-05-2019 00:00:00 13.655 C 37.8667 %
292 21-05-2019 00:00:00 11.88167 C 45.6167 %
293 22-05-2019 00:00:00 13.2875 C 33.7833 %
294 23-05-2019 00:00:00 15.22667 C 33.1417 %
295 24-05-2019 00:00:00 17.24 C 28.7500 %
296 25-05-2019 00:00:00 15.89917 C 22.8167 %
297 26-05-2019 00:00:00 16.26667 C 29.2667 %
298 27-05-2019 00:00:00 14.66667 C 40.5417 %
299 28-05-2019 00:00:00 14.29917 C 38.6250 %
300 29-05-2019 00:00:00 15.28667 C 25.9000 %
Sensor: Nr:Datum:Temp:Feuchte:
Aussen-T/F 301 30-05-2019 00:00:00 15.82833 C 28.8250 %
302 31-05-2019 00:00:00 19.45583 C 30.4167 %
303 01-06-2019 00:00:00 20.21917 C 30.3583 %
304 02-06-2019 00:00:00 22.16417 C 30.0500 %
305 03-06-2019 00:00:00 21.1475 C 27.1667 %
306 04-06-2019 00:00:00 21.80333 C 28.3333 %
307 05-06-2019 00:00:00 23.57917 C 22.7833 %
308 06-06-2019 00:00:00 16.14167 C 28.3667 %
309 07-06-2019 00:00:00 16.10083 C 29.5250 %
310 08-06-2019 00:00:00 16.40917 C 20.2667 %
311 09-06-2019 00:00:00 16.72333 C 27.7667 %
312 10-06-2019 00:00:00 19.705 C 23.4750 %
313 11-06-2019 00:00:00 17.38 C 32.4667 %
314 12-06-2019 00:00:00 16.405 C 33.2917 %
315 13-06-2019 00:00:00 16.27917 C 34.4333 %
316 14-06-2019 00:00:00 18.17 C 35.6583 %
317 15-06-2019 00:00:00 19.72583 C 33.0250 %
318 16-06-2019 00:00:00 19.94417 C 24.9167 %
319 17-06-2019 00:00:00 19.5125 C 29.1250 %
320 18-06-2019 00:00:00 22.02333 C 27.1333 %
321 19-06-2019 00:00:00 22.62583 C 27.6917 %
322 20-06-2019 00:00:00 20 C 28.0167 %
323 21-06-2019 00:00:00 19.3425 C 27.3333 %
324 22-06-2019 00:00:00 19.82667 C 26.6167 %
325 23-06-2019 00:00:00 22.3125 C 27.3750 %
Sensor: Nr:Datum:Temp:Feuchte:
Aussen-T/F 326 24-06-2019 00:00:00 24.96167 C 26.2167 %
327 25-06-2019 00:00:00 26.83333 C 24.5583 %
328 26-06-2019 00:00:00 27.635 C 23.0833 %
329 27-06-2019 00:00:00 25.18917 C 20.6083 %
330 28-06-2019 00:00:00 22.44833 C 23.4333 %
331 29-06-2019 00:00:00 24.38417 C 22.1750 %
332 30-06-2019 00:00:00 26.0575 C 22.2333 %
333 01-07-2019 00:00:00 23.3825 C 20.0000 %
334 02-07-2019 00:00:00 19.63333 C 21.8667 %
335 03-07-2019 00:00:00 18.14583 C 22.9833 %
336 04-07-2019 00:00:00 18.95917 C 21.7583 %
337 05-07-2019 00:00:00 21.28 C 20.0000 %
338 06-07-2019 00:00:00 21.86 C 21.2917 %
339 07-07-2019 00:00:00 17.9975 C 24.5833 %
340 08-07-2019 00:00:00 14.77583 C 24.3917 %
341 09-07-2019 00:00:00 15.65583 C 24.6667 %
342 10-07-2019 00:00:00 17.64083 C 24.2083 %
343 11-07-2019 00:00:00 17.65083 C 31.2583 %
344 12-07-2019 00:00:00 17.16583 C 43.6333 %
345 13-07-2019 00:00:00 17.9575 C 34.1250 %
346 14-07-2019 00:00:00 17.12917 C 26.6667 %
347 15-07-2019 00:00:00 16.56667 C 21.0917 %
348 16-07-2019 00:00:00 16.26 C 28.0333 %
349 17-07-2019 00:00:00 17.56833 C 29.2083 %
350 18-07-2019 00:00:00 19.38333 C 28.1917 %
Sensor: Nr:Datum:Temp:Feuchte:
Aussen-T/F 351 19-07-2019 00:00:00 20.12667 C 31.9750 %
352 20-07-2019 00:00:00 21.81667 C 30.3083 %
353 21-07-2019 00:00:00 22.37333 C 25.8833 %
354 22-07-2019 00:00:00 22.7225 C 26.2833 %
355 23-07-2019 00:00:00 25.34083 C 25.5333 %
356 24-07-2019 00:00:00 27.1975 C 24.2750 %
357 25-07-2019 00:00:00 28.90167 C 21.7333 %
358 26-07-2019 00:00:00 27.54417 C 21.2500 %
359 27-07-2019 00:00:00 23.4375 C 26.6833 %
360 28-07-2019 00:00:00 19.93083 C 38.1333 %
361 29-07-2019 00:00:00 21.45583 C 29.3333 %
362 30-07-2019 00:00:00 22.35833 C 26.7167 %
363 31-07-2019 00:00:00 21.48417 C 20.5333 %
364 01-08-2019 00:00:00 19.83417 C 22.9750 %
365 02-08-2019 00:00:00 20.8775 C 22.8500 %
Sensor: Nr:Datum:Temp:Feuchte:
G-T/H 1 03-08-2018 00:00:00 24.53167 C 58.5333 %
2 04-08-2018 00:00:00 25.9125 C 50.5583 %
3 05-08-2018 00:00:00 24.74417 C 53.5917 %
4 06-08-2018 00:00:00 24.53333 C 49.9583 %
5 07-08-2018 00:00:00 24.12667 C 54.2583 %
6 08-08-2018 00:00:00 24.27667 C 57.4917 %
7 09-08-2018 00:00:00 23.23333 C 60.5250 %
8 10-08-2018 00:00:00 21.49417 C 54.0000 %
9 11-08-2018 00:00:00 20.81667 C 56.0583 %
10 12-08-2018 00:00:00 20.13 C 56.1333 %
11 13-08-2018 00:00:00 20.07083 C 60.5667 %
12 14-08-2018 00:00:00 19.80333 C 63.5000 %
13 15-08-2018 00:00:00 19.82917 C 65.0667 %
14 16-08-2018 00:00:00 19.9875 C 64.3500 %
15 17-08-2018 00:00:00 20.46083 C 64.9583 %
16 18-08-2018 00:00:00 19.96167 C 62.2667 %
17 19-08-2018 00:00:00 19.83667 C 62.1667 %
18 20-08-2018 00:00:00 21.2525 C 62.2667 %
19 21-08-2018 00:00:00 21.17667 C 63.9333 %
20 22-08-2018 00:00:00 21.1725 C 64.1750 %
21 23-08-2018 00:00:00 21.47667 C 64.7000 %
22 24-08-2018 00:00:00 21.1275 C 62.0417 %
23 25-08-2018 00:00:00 19.5075 C 59.1667 %
24 26-08-2018 00:00:00 18.22417 C 55.7083 %
25 27-08-2018 00:00:00 18.48167 C 60.4500 %
Sensor: Nr:Datum:Temp:Feuchte:
G-T/H 26 28-08-2018 00:00:00 18.53833 C 61.2250 %
27 29-08-2018 00:00:00 18.56917 C 62.2417 %
28 30-08-2018 00:00:00 18.82333 C 63.4833 %
29 31-08-2018 00:00:00 18.3025 C 59.8750 %
30 01-09-2018 00:00:00 17.4825 C 59.8917 %
31 02-09-2018 00:00:00 16.9325 C 62.1583 %
32 03-09-2018 00:00:00 18.13333 C 66.0000 %
33 04-09-2018 00:00:00 19.61083 C 66.7083 %
34 05-09-2018 00:00:00 19.59583 C 67.1750 %
35 06-09-2018 00:00:00 19.38917 C 68.3667 %
36 07-09-2018 00:00:00 18.6775 C 67.7917 %
37 08-09-2018 00:00:00 17.10833 C 59.8333 %
38 09-09-2018 00:00:00 17.1975 C 64.7667 %
39 10-09-2018 00:00:00 18.47583 C 60.5250 %
40 11-09-2018 00:00:00 19.45417 C 58.4917 %
41 12-09-2018 00:00:00 18.84083 C 60.8833 %
42 13-09-2018 00:00:00 18.58083 C 66.2167 %
43 14-09-2018 00:00:00 18.04833 C 65.0000 %
44 15-09-2018 00:00:00 17.66667 C 59.8833 %
45 16-09-2018 00:00:00 16.83 C 61.8000 %
46 17-09-2018 00:00:00 17.8475 C 57.0583 %
47 18-09-2018 00:00:00 19.79417 C 56.2333 %
48 19-09-2018 00:00:00 21.03083 C 58.0583 %
49 20-09-2018 00:00:00 20.82 C 55.5500 %
50 21-09-2018 00:00:00 19.29417 C 59.4833 %
Sensor: Nr:Datum:Temp:Feuchte:
G-T/H 51 22-09-2018 00:00:00 17.24917 C 60.5250 %
52 23-09-2018 00:00:00 16.50167 C 65.7500 %
53 24-09-2018 00:00:00 15.14583 C 63.3167 %
54 25-09-2018 00:00:00 13.7275 C 62.7333 %
55 26-09-2018 00:00:00 13.02583 C 63.2917 %
56 27-09-2018 00:00:00 13.0625 C 65.7333 %
57 28-09-2018 00:00:00 13.53583 C 69.5083 %
58 29-09-2018 00:00:00 12.62 C 64.5750 %
59 30-09-2018 00:00:00 11.83417 C 63.4000 %
60 01-10-2018 00:00:00 12.43167 C 68.0167 %
61 02-10-2018 00:00:00 12.47917 C 67.0333 %
62 03-10-2018 00:00:00 13.125 C 70.8750 %
63 04-10-2018 00:00:00 12.85083 C 66.8417 %
64 05-10-2018 00:00:00 13.175 C 68.1250 %
65 06-10-2018 00:00:00 12.79833 C 73.9167 %
66 07-10-2018 00:00:00 14.22167 C 74.0833 %
67 08-10-2018 00:00:00 13.52083 C 69.3917 %
68 09-10-2018 00:00:00 13.39083 C 72.8583 %
69 10-10-2018 00:00:00 13.75333 C 75.3000 %
70 11-10-2018 00:00:00 13.985 C 75.0167 %
71 12-10-2018 00:00:00 14.54333 C 75.8417 %
72 13-10-2018 00:00:00 15.69 C 72.6083 %
73 14-10-2018 00:00:00 15.11667 C 72.1917 %
74 15-10-2018 00:00:00 14.6725 C 73.1583 %
75 16-10-2018 00:00:00 14.08333 C 72.8917 %
Sensor: Nr:Datum:Temp:Feuchte:
G-T/H 76 17-10-2018 00:00:00 13.86667 C 73.4083 %
77 18-10-2018 00:00:00 14.26083 C 74.7500 %
78 19-10-2018 00:00:00 14.28333 C 73.2417 %
79 20-10-2018 00:00:00 14.01833 C 72.8250 %
80 21-10-2018 00:00:00 12.52583 C 67.5917 %
81 22-10-2018 00:00:00 11.7575 C 67.8750 %
82 23-10-2018 00:00:00 11.71417 C 69.2333 %
83 24-10-2018 00:00:00 13.1175 C 73.3417 %
84 25-10-2018 00:00:00 13.88083 C 73.4083 %
85 26-10-2018 00:00:00 13.5375 C 68.0250 %
86 27-10-2018 00:00:00 12.19667 C 65.8417 %
87 28-10-2018 00:00:00 10.9176 C 62.4880 %
88 29-10-2018 00:00:00 10.95583 C 65.6250 %
89 30-10-2018 00:00:00 10.86333 C 67.5167 %
90 31-10-2018 00:00:00 10.8775 C 68.4750 %
91 01-11-2018 00:00:00 10.72083 C 69.2750 %
92 02-11-2018 00:00:00 11.285 C 72.4667 %
93 03-11-2018 00:00:00 10.44 C 67.0750 %
94 04-11-2018 00:00:00 10.265 C 68.6167 %
95 05-11-2018 00:00:00 11.60167 C 72.5750 %
96 06-11-2018 00:00:00 11.5475 C 72.0167 %
97 07-11-2018 00:00:00 11.24083 C 72.4083 %
98 08-11-2018 00:00:00 11.87833 C 74.0333 %
99 09-11-2018 00:00:00 11.62333 C 73.2750 %
100 10-11-2018 00:00:00 12.22833 C 74.7000 %
Sensor: Nr:Datum:Temp:Feuchte:
G-T/H 101 11-11-2018 00:00:00 12.73917 C 75.7833 %
102 12-11-2018 00:00:00 13.255 C 75.6083 %
103 13-11-2018 00:00:00 13.2975 C 75.3417 %
104 14-11-2018 00:00:00 11.54667 C 70.8583 %
105 15-11-2018 00:00:00 11.19417 C 71.8333 %
106 16-11-2018 00:00:00 10.76833 C 68.8833 %
107 17-11-2018 00:00:00 9.25167 C 68.0000 %
108 18-11-2018 00:00:00 8.3775 C 68.4167 %
109 19-11-2018 00:00:00 8.15 C 69.1333 %
110 20-11-2018 00:00:00 8.56667 C 68.8833 %
111 21-11-2018 00:00:00 8.45333 C 69.6833 %
112 22-11-2018 00:00:00 8.65333 C 70.9083 %
113 23-11-2018 00:00:00 7.69667 C 69.4917 %
114 24-11-2018 00:00:00 8.0325 C 72.4750 %
115 25-11-2018 00:00:00 9.05667 C 73.9333 %
116 26-11-2018 00:00:00 9.6625 C 74.3250 %
117 27-11-2018 00:00:00 9.61333 C 72.8000 %
118 28-11-2018 00:00:00 8.91917 C 71.9583 %
119 29-11-2018 00:00:00 9.26083 C 73.8000 %
120 30-11-2018 00:00:00 9.63 C 74.7833 %
121 01-12-2018 00:00:00 9.92417 C 74.6250 %
122 02-12-2018 00:00:00 10.7275 C 75.6167 %
123 03-12-2018 00:00:00 11.87333 C 76.5417 %
124 04-12-2018 00:00:00 11.3275 C 72.0250 %
125 05-12-2018 00:00:00 9.61933 C 69.0504 %
Sensor: Nr:Datum:Temp:Feuchte:
G-T/H 126 06-12-2018 00:00:00 10.40583 C 72.9583 %
127 07-12-2018 00:00:00 11.82917 C 74.0583 %
128 08-12-2018 00:00:00 11.04667 C 70.6667 %
129 09-12-2018 00:00:00 10.81167 C 72.8000 %
130 10-12-2018 00:00:00 10.01083 C 71.3083 %
131 11-12-2018 00:00:00 9.19083 C 71.8583 %
132 12-12-2018 00:00:00 8.70667 C 72.1583 %
133 13-12-2018 00:00:00 8.07083 C 70.1167 %
134 14-12-2018 00:00:00 7.78 C 68.6583 %
135 15-12-2018 00:00:00 7.575 C 68.1083 %
136 16-12-2018 00:00:00 7.33667 C 67.4333 %
137 17-12-2018 00:00:00 7.74583 C 71.2333 %
138 18-12-2018 00:00:00 8.3475 C 72.4667 %
139 19-12-2018 00:00:00 8.60083 C 72.9417 %
140 20-12-2018 00:00:00 9.3175 C 74.0000 %
141 21-12-2018 00:00:00 10.0375 C 74.8333 %
142 22-12-2018 00:00:00 10.99417 C 74.3000 %
143 23-12-2018 00:00:00 10.525 C 74.6917 %
144 24-12-2018 00:00:00 10.26583 C 72.2917 %
145 25-12-2018 00:00:00 8.6825 C 71.1167 %
146 26-12-2018 00:00:00 7.58083 C 70.1333 %
147 27-12-2018 00:00:00 6.98167 C 70.2333 %
148 28-12-2018 00:00:00 6.8575 C 71.5833 %
149 29-12-2018 00:00:00 7.085 C 72.4583 %
150 30-12-2018 00:00:00 8.24 C 74.4417 %
Sensor: Nr:Datum:Temp:Feuchte:
G-T/H 151 31-12-2018 00:00:00 9.18833 C 75.6083 %
152 01-01-2019 00:00:00 9.65583 C 75.8167 %
153 02-01-2019 00:00:00 8.91333 C 73.4000 %
154 03-01-2019 00:00:00 7.65417 C 72.7000 %
155 04-01-2019 00:00:00 7.72667 C 73.7750 %
156 05-01-2019 00:00:00 8.26833 C 74.6083 %
157 06-01-2019 00:00:00 8.8 C 75.9250 %
158 07-01-2019 00:00:00 8.94 C 75.0167 %
159 08-01-2019 00:00:00 9.01833 C 74.5417 %
160 09-01-2019 00:00:00 8.46417 C 73.0417 %
161 10-01-2019 00:00:00 7.90083 C 71.3750 %
162 11-01-2019 00:00:00 7.57167 C 72.1167 %
163 12-01-2019 00:00:00 8.24417 C 74.2500 %
164 13-01-2019 00:00:00 8.91667 C 75.6333 %
165 14-01-2019 00:00:00 9.11083 C 74.7417 %
166 15-01-2019 00:00:00 8.33333 C 74.3833 %
167 16-01-2019 00:00:00 8.5125 C 74.7083 %
168 17-01-2019 00:00:00 8.4975 C 74.5500 %
169 18-01-2019 00:00:00 7.79333 C 72.6583 %
170 19-01-2019 00:00:00 6.99833 C 69.2000 %
171 20-01-2019 00:00:00 6.61083 C 64.8583 %
172 21-01-2019 00:00:00 6.18667 C 61.1750 %
173 22-01-2019 00:00:00 6.04833 C 60.2083 %
174 23-01-2019 00:00:00 6.2575 C 63.4917 %
175 24-01-2019 00:00:00 6.30833 C 65.6583 %
Sensor: Nr:Datum:Temp:Feuchte:
G-T/H 176 25-01-2019 00:00:00 6.2425 C 67.2833 %
177 26-01-2019 00:00:00 6.51833 C 71.7083 %
178 27-01-2019 00:00:00 7.75333 C 73.9667 %
179 28-01-2019 00:00:00 7.77417 C 74.2417 %
180 29-01-2019 00:00:00 7.46167 C 73.9917 %
181 30-01-2019 00:00:00 6.65667 C 69.5667 %
182 31-01-2019 00:00:00 6.54333 C 72.1667 %
183 01-02-2019 00:00:00 6.475 C 73.4167 %
184 02-02-2019 00:00:00 6.70083 C 74.6612 %
185 03-02-2019 00:00:00 6.98667 C 74.3417 %
186 04-02-2019 00:00:00 6.68333 C 73.8083 %
187 05-02-2019 00:00:00 7.12 C 74.5083 %
188 06-02-2019 00:00:00 6.9875 C 73.4333 %
189 07-02-2019 00:00:00 7.0025 C 74.8750 %
190 08-02-2019 00:00:00 7.93833 C 76.1083 %
191 09-02-2019 00:00:00 8.85917 C 76.1583 %
192 10-02-2019 00:00:00 9.2225 C 75.9667 %
193 11-02-2019 00:00:00 8.8125 C 75.1083 %
194 12-02-2019 00:00:00 8.09167 C 74.2167 %
195 13-02-2019 00:00:00 7.47583 C 73.5000 %
196 14-02-2019 00:00:00 6.95583 C 72.5083 %
197 15-02-2019 00:00:00 6.6825 C 71.6250 %
198 16-02-2019 00:00:00 6.53917 C 73.3083 %
199 17-02-2019 00:00:00 6.63667 C 74.1417 %
200 18-02-2019 00:00:00 6.65583 C 74.3000 %
Sensor: Nr:Datum:Temp:Feuchte:
G-T/H 201 19-02-2019 00:00:00 7.19417 C 75.8083 %
202 20-02-2019 00:00:00 7.495 C 75.5500 %
203 21-02-2019 00:00:00 7.76167 C 75.7333 %
204 22-02-2019 00:00:00 9.21417 C 77.2250 %
205 23-02-2019 00:00:00 9.20583 C 74.8917 %
206 24-02-2019 00:00:00 8.01917 C 72.1333 %
207 25-02-2019 00:00:00 7.5975 C 71.6250 %
208 26-02-2019 00:00:00 7.74083 C 71.5500 %
209 27-02-2019 00:00:00 6.63667 C 68.6917 %
210 28-02-2019 00:00:00 8.11917 C 73.1500 %
211 01-03-2019 00:00:00 9.37083 C 74.7583 %
212 02-03-2019 00:00:00 9.69333 C 72.8750 %
213 03-03-2019 00:00:00 10.36917 C 73.5083 %
214 04-03-2019 00:00:00 10.60917 C 73.1083 %
215 05-03-2019 00:00:00 9.71 C 71.6083 %
216 06-03-2019 00:00:00 9.71 C 73.4333 %
217 07-03-2019 00:00:00 10.48417 C 73.6500 %
218 08-03-2019 00:00:00 10.0575 C 72.7250 %
219 09-03-2019 00:00:00 10.17167 C 73.4333 %
220 10-03-2019 00:00:00 10.60917 C 71.4667 %
221 11-03-2019 00:00:00 9.44833 C 67.3667 %
222 12-03-2019 00:00:00 8.92417 C 70.4667 %
223 13-03-2019 00:00:00 9.345 C 71.3250 %
224 14-03-2019 00:00:00 9.13333 C 72.3750 %
225 15-03-2019 00:00:00 10.055 C 74.0583 %
Sensor: Nr:Datum:Temp:Feuchte:
G-T/H 226 16-03-2019 00:00:00 10.57417 C 72.1333 %
227 17-03-2019 00:00:00 9.70583 C 61.2083 %
228 18-03-2019 00:00:00 6.8675 C 62.4667 %
229 19-03-2019 00:00:00 6.02333 C 59.7583 %
230 20-03-2019 00:00:00 7.52333 C 64.5167 %
231 21-03-2019 00:00:00 9.29167 C 60.4917 %
232 22-03-2019 00:00:00 10.14833 C 61.3250 %
233 23-03-2019 00:00:00 10.15917 C 64.7250 %
234 24-03-2019 00:00:00 9.54833 C 67.2167 %
235 25-03-2019 00:00:00 9.15583 C 67.9000 %
236 26-03-2019 00:00:00 9.0525 C 69.7250 %
237 27-03-2019 00:00:00 9.47917 C 69.9333 %
238 28-03-2019 00:00:00 9.49583 C 69.9417 %
239 29-03-2019 00:00:00 10.2825 C 66.2583 %
240 30-03-2019 00:00:00 9.79667 C 60.6083 %
241 31-03-2019 00:00:00 11.2313 C 64.9130 %
242 01-04-2019 00:00:00 11.50333 C 60.3833 %
243 02-04-2019 00:00:00 11.2875 C 63.6333 %
244 03-04-2019 00:00:00 11.49833 C 67.0000 %
245 04-04-2019 00:00:00 10.56333 C 67.8833 %
246 05-04-2019 00:00:00 9.87333 C 68.5417 %
247 06-04-2019 00:00:00 10.76333 C 69.0417 %
248 07-04-2019 00:00:00 11.4925 C 68.0667 %
249 08-04-2019 00:00:00 12.30917 C 70.6833 %
250 09-04-2019 00:00:00 12.2875 C 74.7333 %
Sensor: Nr:Datum:Temp:Feuchte:
G-T/H 251 10-04-2019 00:00:00 12.35917 C 56.9917 %
252 11-04-2019 00:00:00 10.73083 C 48.4917 %
253 12-04-2019 00:00:00 9.57417 C 46.6333 %
254 13-04-2019 00:00:00 9.48583 C 55.2583 %
255 14-04-2019 00:00:00 9.175 C 58.5167 %
256 15-04-2019 00:00:00 10.07667 C 62.0833 %
257 16-04-2019 00:00:00 11.07083 C 62.2083 %
258 17-04-2019 00:00:00 12.33417 C 65.8333 %
259 18-04-2019 00:00:00 13.09417 C 62.0833 %
260 19-04-2019 00:00:00 14.9125 C 51.5500 %
261 20-04-2019 00:00:00 15.6775 C 48.0417 %
262 21-04-2019 00:00:00 16.29 C 47.3167 %
263 22-04-2019 00:00:00 15.22333 C 52.2417 %
264 23-04-2019 00:00:00 15.61417 C 53.2333 %
265 24-04-2019 00:00:00 15.37833 C 59.4167 %
266 25-04-2019 00:00:00 14.5575 C 61.5833 %
267 26-04-2019 00:00:00 14.28667 C 64.1250 %
268 27-04-2019 00:00:00 13.445 C 64.1833 %
269 28-04-2019 00:00:00 12.45 C 64.1833 %
270 29-04-2019 00:00:00 11.95083 C 63.4083 %
271 30-04-2019 00:00:00 13.89833 C 57.8083 %
272 01-05-2019 00:00:00 14.135 C 60.2833 %
273 02-05-2019 00:00:00 13.82333 C 62.1750 %
274 03-05-2019 00:00:00 13.86417 C 59.4750 %
275 04-05-2019 00:00:00 12.72083 C 59.0083 %
Sensor: Nr:Datum:Temp:Feuchte:
G-T/H 276 05-05-2019 00:00:00 11.31667 C 59.7917 %
277 06-05-2019 00:00:00 11.38833 C 61.2833 %
278 07-05-2019 00:00:00 11.88083 C 62.6250 %
279 08-05-2019 00:00:00 11.97 C 62.9333 %
280 09-05-2019 00:00:00 12.35167 C 66.7333 %
281 10-05-2019 00:00:00 12.92101 C 67.6218 %
282 11-05-2019 00:00:00 13.15833 C 68.0833 %
283 12-05-2019 00:00:00 12.12833 C 64.0833 %
284 13-05-2019 00:00:00 12.045 C 60.0000 %
285 14-05-2019 00:00:00 12.31083 C 59.7417 %
286 15-05-2019 00:00:00 12.7725 C 52.9833 %
287 16-05-2019 00:00:00 13.015 C 56.6333 %
288 17-05-2019 00:00:00 13.21917 C 63.1000 %
289 18-05-2019 00:00:00 14.04667 C 66.4250 %
290 19-05-2019 00:00:00 14.825 C 68.0750 %
291 20-05-2019 00:00:00 14.84583 C 68.8000 %
292 21-05-2019 00:00:00 14.15167 C 70.0167 %
293 22-05-2019 00:00:00 13.71167 C 69.7583 %
294 23-05-2019 00:00:00 15.29917 C 61.3750 %
295 24-05-2019 00:00:00 17.54 C 55.6333 %
296 25-05-2019 00:00:00 17.29083 C 56.6250 %
297 26-05-2019 00:00:00 16.44583 C 60.8167 %
298 27-05-2019 00:00:00 16.3925 C 64.3917 %
299 28-05-2019 00:00:00 15.71583 C 66.5333 %
300 29-05-2019 00:00:00 16.0475 C 54.4250 %
Sensor: Nr:Datum:Temp:Feuchte:
G-T/H 301 30-05-2019 00:00:00 15.75417 C 61.4167 %
302 31-05-2019 00:00:00 17.74167 C 65.2667 %
303 01-06-2019 00:00:00 18.025 C 65.0750 %
304 02-06-2019 00:00:00 18.60667 C 66.0917 %
305 03-06-2019 00:00:00 19.92333 C 65.8667 %
306 04-06-2019 00:00:00 19.69667 C 66.1500 %
307 05-06-2019 00:00:00 20.025 C 66.6917 %
308 06-06-2019 00:00:00 19.2775 C 64.1917 %
309 07-06-2019 00:00:00 17.86583 C 60.1250 %
310 08-06-2019 00:00:00 17.565 C 60.2333 %
311 09-06-2019 00:00:00 16.99667 C 61.5667 %
312 10-06-2019 00:00:00 17.96333 C 64.8583 %
313 11-06-2019 00:00:00 18.18333 C 66.3917 %
314 12-06-2019 00:00:00 17.70333 C 67.3917 %
315 13-06-2019 00:00:00 17.89167 C 58.1667 %
316 14-06-2019 00:00:00 19.59083 C 60.6083 %
317 15-06-2019 00:00:00 19.6625 C 64.9917 %
318 16-06-2019 00:00:00 19.56917 C 62.4417 %
319 17-06-2019 00:00:00 19.01167 C 62.8417 %
320 18-06-2019 00:00:00 21.23667 C 58.9250 %
321 19-06-2019 00:00:00 21.53167 C 61.1000 %
322 20-06-2019 00:00:00 20.7375 C 63.5667 %
323 21-06-2019 00:00:00 20.53083 C 52.5000 %
324 22-06-2019 00:00:00 20.16917 C 54.8083 %
325 23-06-2019 00:00:00 21.31917 C 57.1667 %
Sensor: Nr:Datum:Temp:Feuchte:
G-T/H 326 24-06-2019 00:00:00 23.94167 C 55.3000 %
327 25-06-2019 00:00:00 23.93083 C 58.5083 %
328 26-06-2019 00:00:00 24.37417 C 62.9417 %
329 27-06-2019 00:00:00 23.60667 C 60.8333 %
330 28-06-2019 00:00:00 22.21417 C 58.6667 %
331 29-06-2019 00:00:00 24.105 C 45.4667 %
332 30-06-2019 00:00:00 23.46833 C 52.6667 %
333 01-07-2019 00:00:00 23.14417 C 56.9333 %
334 02-07-2019 00:00:00 21.5975 C 49.7667 %
335 03-07-2019 00:00:00 20.46667 C 46.5000 %
336 04-07-2019 00:00:00 20.24 C 44.2750 %
337 05-07-2019 00:00:00 20.99583 C 47.4667 %
338 06-07-2019 00:00:00 21.055 C 53.0250 %
339 07-07-2019 00:00:00 20.39667 C 54.9083 %
340 08-07-2019 00:00:00 18.37167 C 51.1250 %
341 09-07-2019 00:00:00 18.10583 C 49.1417 %
342 10-07-2019 00:00:00 18.91917 C 42.0333 %
343 11-07-2019 00:00:00 18.91167 C 59.7083 %
344 12-07-2019 00:00:00 18.3025 C 73.7917 %
345 13-07-2019 00:00:00 18.47333 C 67.7417 %
346 14-07-2019 00:00:00 18.46917 C 65.0917 %
347 15-07-2019 00:00:00 18.2725 C 59.6250 %
348 16-07-2019 00:00:00 17.95917 C 58.3667 %
349 17-07-2019 00:00:00 18.23667 C 61.2917 %
350 18-07-2019 00:00:00 19.79417 C 58.3083 %
Sensor: Nr:Datum:Temp:Feuchte:
G-T/H 351 19-07-2019 00:00:00 19.79417 C 61.5917 %
352 20-07-2019 00:00:00 19.78583 C 63.8500 %
353 21-07-2019 00:00:00 20.41333 C 63.8583 %
354 22-07-2019 00:00:00 22.33167 C 54.5167 %
355 23-07-2019 00:00:00 22.5225 C 56.8667 %
356 24-07-2019 00:00:00 23.21833 C 58.3417 %
357 25-07-2019 00:00:00 24.345 C 57.0083 %
358 26-07-2019 00:00:00 24.17667 C 57.8500 %
359 27-07-2019 00:00:00 23.54 C 61.3083 %
360 28-07-2019 00:00:00 22.08333 C 64.8167 %
361 29-07-2019 00:00:00 21.58833 C 59.7917 %
362 30-07-2019 00:00:00 21.785 C 58.7750 %
363 31-07-2019 00:00:00 22.4025 C 50.4333 %
364 01-08-2019 00:00:00 21.77083 C 49.7000 %
365 02-08-2019 00:00:00 21.34583 C 55.7750 %

Maximal/Minimal-Werte vom 03.08.2018 - 02.08.2019

Sensor Min Max Avg
Temp
(Aussen-T/F)
-10.2 °C
22-01-2019  06:27:17
40.7 °C
03-08-2018  19:02:17
11.16 °C
Feuchte
(Aussen-T/F)
20 %
03-08-2018  00:02:17
75 %
25-11-2018  08:35:17
34.81 %
Temp
(G-T/H)
3.3 °C
19-03-2019  05:31:17
29.4 °C
29-06-2019  19:28:17
13.64 °C
Feuchte
(G-T/H)
25 %
29-06-2019  18:04:17
80 %
06-10-2018  13:43:17
65.95 %

Die Daten stammen von einer Davis Vantage Pro 2 Wetter-Station und werden unter Linux mit der Software wview2wettercgi und aufbereitet. Alle Angaben erfolgen ohne Gewähr für ihre Vollständigkeit oder Richtigkeit.
Kontakt: Rainer Krienke krienke@uni-koblenz.de . Meine Webseiten an der Uni Koblenz oder privat.
Version: $Revision: 0.78 $